Regional Weather Roundup
Issued by NWS Upton, NY

Current Version | Previous Version | Text Only | Print | Product List | Glossary On
Versions: 1 2 3 4 5 6 7 8 9 10 11 12 13 14 15 16 17 18 19 20 21 22 23 24 25 26 27 28 29 30 31 32 33 34 35 36 37 38 39 40 41 42 43 44 45 46 47
000
ASUS41 KOKX 270607
RWROKX

REGIONAL WEATHER ROUNDUP
NATIONAL WEATHER SERVICE NEW YORK NY
200 AM EDT MON APR 27 2015

NOTE: "FAIR" INDICATES FEW OR NO CLOUDS BELOW 12,000 FEET WITH NO
SIGNIFICANT WEATHER AND/OR OBSTRUCTIONS TO VISIBILITY.

NYZ071-072-176-178-NJZ106-104-270700-
NEW YORK CITY METRO AREA


CITY           SKY/WX    TMP DP  RH WIND       PRES   REMARKS
CENTRAL PARK   CLOUDY    51  29  42 W6        29.71S
LAGUARDIA APRT MOCLDY    51  31  46 NW9       29.68F
KENNEDY INTL   MOCLDY    51  29  42 NW9       29.69S
NEWARK/LIBERTY PTCLDY    48  31  51 W7        29.69F
BRNX BOT. GARD   N/A     50  32  50 W9        29.68F
TETERBORO      CLOUDY    48  30  49 NW3       29.68S
$$

NYZ177-179-078>081-270700-
LONG ISLAND NEW YORK

CITY           SKY/WX    TMP DP  RH WIND       PRES   REMARKS
FARMINGDALE    MOCLDY    49  31  49 NW6       29.67S
ISLIP          CLOUDY    50  32  50 W7        29.65S
SHIRLEY        CLOUDY    48  34  58 NW6       29.66F
WESTHAMPTON    CLOUDY    43  36  76 CALM      29.66F
MONTAUK POINT    N/A     49  37  63 W5        29.64F
$$

NYZ052-065-067-270700-
HUDSON VALLEY

CITY           SKY/WX    TMP DP  RH WIND       PRES   REMARKS
WHITE PLAINS   MOCLDY    48  31  51 NW7       29.66S
NEWBURGH       NOT AVBL
MONTGOMERY     CLOUDY    48  31  51 NW8       29.67S
POUGHKEEPSIE   CLOUDY    50  32  50 CALM      29.67S
ALBANY         CLOUDY    46  33  60 W7        29.69S
$$

NJZ001-105-106-008-010-013-015-019>022-104-270700-
NEW JERSEY

CITY           SKY/WX    TMP DP  RH WIND       PRES   REMARKS
NEWARK/LIBERTY PTCLDY    48  31  51 W7        29.69F
TETERBORO      CLOUDY    48  30  49 NW3       29.68S
CALDWELL       CLOUDY    45  31  58 CALM      29.70S
MORRISTOWN     PTCLDY    50  28  43 NW5       29.69F
SOMERVILLE     CLEAR     36  30  79 CALM      29.69F
SUSSEX         CLOUDY    47  29  49 NW5       29.70F
ANDOVER          N/A     46  28  49 VRB5      29.69F
TRENTON        CLEAR     46  28  49 NW7       29.71S
MILLVILLE      MOCLDY    36  33  89 CALM      29.73F
ATLANTIC CITY  CLEAR     43  32  65 CALM      29.72F
WRIGHTSTOWN    CLEAR     42  31  64 SW5       29.69F
TOMS RIVER     CLEAR     36  27  69 W3        29.72R
BELMAR         CLEAR     45  27  49 W5        29.70S
$$

PAZ047>061-062-071-270700-
EASTERN PENNSYLVANIA

CITY           SKY/WX    TMP DP  RH WIND       PRES   REMARKS
PHILADELPHIA   CLEAR     52  27  38 NW7       29.74F
ALLENTOWN      PTCLDY    43  28  55 W5        29.73F
SCRANTON       CLOUDY    45  30  55 NW6       29.72F
$$

CTZ002-004>006-009-010-012-RIZ004-006-007-MAZ004-011-015-270700-
SOUTHERN NEW ENGLAND
 IN CT

CITY           SKY/WX    TMP DP  RH WIND       PRES   REMARKS
BRADLEY INTL   CLOUDY    50  32  50 NW7       29.64S
HARTFORD       CLOUDY    50  31  48 VRB6      29.65S
DANBURY        CLOUDY    48  28  46 VRB3      29.67S
WTRBRY/OXFORD  CLOUDY    46  28  49 N6        29.67S
BRIDGEPORT     CLOUDY    52  31  44 NW9       29.65S
MERIDEN        CLOUDY    51  31  46 NW5       29.65F
NEW HAVEN      CLOUDY    51  31  46 NW9       29.65S
CHESTER        CLOUDY    50  32  50 NW9       29.64F
GROTON         CLOUDY    51  31  46 NW9       29.62F
WILLIMANTIC    CLOUDY    51  32  48 NW5       29.64S

 IN RI

CITY           SKY/WX    TMP DP  RH WIND       PRES   REMARKS
PROVIDENCE     CLOUDY    51  31  46 NW6       29.62S
BLOCK ISLAND   CLOUDY    50  30  46 NW7       29.62F
WESTERLY       CLOUDY    51  32  48 NW7       29.63S

 IN MA

CITY           SKY/WX    TMP DP  RH WIND       PRES   REMARKS
BOSTON         CLOUDY    49  33  54 NW8       29.61F
WORCESTER      CLOUDY    46  30  53 NW8       29.62S
WESTFIELD      CLOUDY    49  32  52 NW9       29.64S
PROVINCETOWN   CLOUDY   N/A N/A N/A NW9       29.59S
NANTUCKET      PTCLDY    43  38  82 W7        29.59F
$$

ANZ330-335-338-340-345-350-353-355-270700-
COASTAL MARINE OBSERVATIONS


STATION/POSITION TIME  SKY/WX   TEMP    WIND        PRES    VSBY  WAVE
                                AIR SEA DIR/SP/G                  HT/PER
                 (UTC)          (F)     (DEG/KT/KT) (MB)    (MI)  (FT/S)
NY HARB ENTRANCE 0550            48 45  290/ 10/ 10 1004.8          1/ 9
4S FIRE IS       0503               45                N/A           2/11
20S FIRE ISLAND  0550            46 44  280/ 10/ 12 1004.7          2/10
23SW MTP         0550            46 43  270/  8/  8 1003.4          2/10
HUDSON CANYON    NOT AVBL
EXECUTION ROCKS  NOT AVBL
WESTERN LI SOUND NOT AVBL
CENTRAL LI SOUND NOT AVBL
EASTERN LI SOUND 0500            51     330/  8/ 12   N/A
ROBBINS REEF     0500            51     300/ 11/ 12 1004.3
$$


>>>>>>>>>>>>>>>>>>>>>>>>>>>> KEY <<<<<<<<<<<<<<<<<<<<<<<<<<<
>                                                          <
>     SKY/WX - SKY CONDITION/PRESENT WEATHER               <
>     TMP    - TEMPERATURE IN FAHRENHEIT                   <
>     DP     - DEWPOINT IN FAHRENHEIT                      <
>     RH     - RELATIVE HUMIDITY IN PERCENT                <
>     WIND   - DIRECTION AND SPEED IN MPH                  <
>     PRES   - MEAN SEA LEVEL PRESSURE IN INCHES OF HG     <
>     WCI    - WIND CHILL INDEX                            <
>     VSB    - VISIBILITY IN MILES                         <
>     HX     - HEAT INDEX                                  <
>     TC     - TEMPERATURE IN CELSIUS                      <
>     VRB    - VARIABLE WIND DIRECTION                     <
>                                                          <
>>>>>>>>>>>>>>>>>>>>>>>>>>>> KEY <<<<<<<<<<<<<<<<<<<<<<<<<<<





USA.gov is the U.S. government's official web portal to all federal, state and local government web resources and services.